Weather History for Curtin, WE

Change the Weather History Date:

Tuesday, June 4, 2013

  Actual Average Record
Temperature  
Mean Temperature 79 °F -  
Max Temperature 90 °F - - ()
Min Temperature 68 °F - - ()
Cooling Degree Days 14    
Growing Degree Days 29 (Base 50)    
Moisture  
Dew Point 56 °F    
Average Humidity 48    
Maximum Humidity 73    
Minimum Humidity 23    
Precipitation  
Precipitation 0.00 in - - ()
Sea Level Pressure  
Sea Level Pressure 29.88 in    
Wind  
Wind Speed 5 mph ()    
Max Wind Speed 9 mph    
Max Gust Speed -    
T = Trace of Precipitation, MM = Missing Value Source: Averaged Metar Reports

Daily Weather History Graph

Daily Weather History Graph

Search for Another Location

Airport:

Trip Planner

Search our weather history database for the weather conditions in past years. The results will help you decide how hot, cold, wet, or windy it might be!

Date:

Astronomy

Jun. 04, 2013 Rise Set
Actual Time 6:09 AM AWST 5:16 PM AWST
Civil Twilight 5:45 AM AWST 5:40 PM AWST
Nautical Twilight 5:18 AM AWST 6:07 PM AWST
Astronomical Twilight 4:52 AM AWST 6:33 PM AWST
Moon 2:13 AM AWST (6/4) 2:07 PM AWST (6/4)
Length of Visible Light 11h 54m
Length of Day
11h 07m
Waning Crescent, 18% of the Moon is Illuminated
Jun 4
Waning Crescent
Jun 8
New
Jun 17
First Quarter
Jun 23
Full
Jun 30
Last Quarter

Hourly Weather History & Observations

Time (AWST) Temp. Heat Index Dew Point Humidity Pressure Visibility Wind Dir Wind Speed Gust Speed Precip Events Conditions
12:00 AM 73 °F - 55 °F 42% 29.86 in - East 5.8 mph - -  
12:00 AM 73.4 °F - 55.4 °F 53% 29.86 in - East 5.8 mph - N/A   Unknown
1:00 AM 73.4 °F - 55.4 °F 53% 29.86 in - East 5.8 mph - N/A   Unknown
2:00 AM 73.4 °F - 53.6 °F 50% 29.83 in - East 6.9 mph - N/A   Unknown
3:00 AM 72 °F - 53 °F 41% 29.85 in - East 4.6 mph - -  
3:00 AM 71.6 °F - 53.6 °F 53% 29.86 in - East 4.6 mph - N/A   Unknown
4:00 AM 69.8 °F - 53.6 °F 56% 29.86 in - East 5.8 mph - N/A   Unknown
5:00 AM 69.8 °F - 53.6 °F 56% 29.86 in - ESE 5.8 mph - N/A   Unknown
6:00 AM 68 °F - 53 °F 49% 29.90 in - East 6.9 mph - -  
6:00 AM 68.0 °F - 53.6 °F 60% 29.89 in - East 6.9 mph - N/A   Unknown
7:00 AM 69.8 °F - 53.6 °F 56% 29.92 in - East 5.8 mph - N/A   Unknown
8:00 AM 71.6 °F - 55.4 °F 57% 29.95 in - East 4.6 mph - N/A   Unknown
9:00 AM 79 °F - 55 °F 33% 29.96 in - East 8.1 mph - -  
9:00 AM 78.8 °F - 55.4 °F 44% 29.95 in - East 8.1 mph - N/A   Unknown
10:00 AM 86.0 °F 84.2 °F 53.6 °F 33% 29.95 in - ENE 8.1 mph - N/A   Unknown
11:00 AM 86.0 °F 84.2 °F 53.6 °F 33% 29.92 in - ENE 8.1 mph - N/A   Unknown
12:00 PM 87 °F - 54 °F 23% 29.90 in - NE 6.9 mph - -  
12:00 PM 87.8 °F 85.7 °F 53.6 °F 31% 29.89 in - NE 6.9 mph - N/A   Unknown
1:00 PM 89.6 °F 87.7 °F 55.4 °F 31% 29.86 in - NNE 9.2 mph - N/A   Unknown
2:00 PM 86.0 °F 84.5 °F 55.4 °F 35% 29.83 in - NNE 5.8 mph - N/A   Unknown
3:00 PM 85 °F - 55 °F 26% 29.83 in - NNE 6.9 mph - -  
3:00 PM 84.2 °F 83.0 °F 55.4 °F 37% 29.83 in - NNE 6.9 mph - N/A   Unknown
4:00 PM 82.4 °F 82.0 °F 57.2 °F 42% 29.83 in - NE 5.8 mph - N/A   Unknown
5:00 PM 78.8 °F - 59.0 °F 51% 29.83 in - NE 1.2 mph - N/A   Unknown
6:00 PM 76 °F - 60 °F 48% 29.86 in - Calm Calm - -  
6:00 PM 77.0 °F - 60.8 °F 57% 29.86 in - Calm Calm - N/A   Unknown
7:00 PM 75.2 °F - 59.0 °F 57% 29.89 in - North 4.6 mph - N/A   Unknown
8:00 PM 71.6 °F - 59.0 °F 64% 29.89 in - Calm Calm - N/A   Unknown
9:00 PM 70 °F - 60 °F 62% 29.88 in - Calm Calm - -  
9:00 PM 69.8 °F - 60.8 °F 73% 29.89 in - Calm Calm - N/A   Unknown
10:00 PM 71.6 °F - 60.8 °F 69% 29.89 in - SSE 4.6 mph - N/A   Unknown
11:00 PM 71.6 °F - 60.8 °F 69% 29.86 in - SSE 1.2 mph - N/A   Unknown